{"data":{"norad_id":58022,"epoch":"2026-05-25T03:07:07.703328Z","epoch_age_seconds":70733,"freshness":"FRESH","line1":"1 58022U 23155G   26145.12995027  .00005613  00000+0  34383-3 0  9994","line2":"2 58022  97.5373 214.9565 0006902 329.3162  30.7663 15.10562027144258","mean_motion":15.10562027,"eccentricity":0.0006902,"inclination_deg":97.5373,"raan_deg":214.9565,"arg_perigee_deg":329.3162,"mean_anomaly_deg":30.7663,"bstar":0.00034383,"rev_number":14425,"period_min":95.328756731682,"perigee_km":529.71375070106,"apogee_km":539.25593389216,"semimajor_km":6912.6218422966,"source":"CELESTRAK","updated_at":"2026-05-25T13:38:00.427215Z"}}